Volver al catálogo

COBE DEB

ActivoSSO
NORAD 20328·DEBRIS·🇺🇸 United States

Lanzado Nov 18, 1989 desde Vandenberg Space Force Base

Loading…

Próximos Pases (próximas 24 horas)

TLE

ActualizadoSource: Space-Track

Época: Sep 14, 2026, 06:08 UTC

1 20328U 89089D   26257.25584470 -.00000172  00000-0 -79958-4 0  9990
2 20328  98.9285 259.8615 0002056 192.1087 182.8437 14.04763334885622

Sigue COBE DEB en tiempo real con AllMySat

Download on the App Store